TIME,DELAY(SENSOR),PRES,OXYGEN,RAWTEMP,T(OPTODE),TCPHASE,FLUOR,BETA(BETA700),BETA(BETA412),BETA(BETA440),CDOM,C(CSC),ED(ED412.40),ED(ED444.00),ED(ED489.70),ED(ED554.30),LU(LU411.80),LU(LU443.40),LU(LU489.60),LU(LU554.10),COMP,TILTX,TILTY,CHECK
1356061091,5807,842.6699829101562000,46.6413307189941400,666.0145874023438000,4.4297618865966800,54.0939292907714840,53,99,89,80,79,15164,2147756315,2147423076,2148011904,2147876242,2147641325,2147059913,2148257819,2147193307,1345,4,13,46475
1356064687,5810,933.9299926757812000,50.2282104492187500,672.6392211914062000,4.2109742164611820,53.6724891662597660,53,97,88,80,81,15164,2147753371,2147423396,2148009453,2147872018,2147643309,2147052534,2148261421,2147198409,3586,4,13,2715
1356068287,5806,953.7100219726562000,51.3955383300781250,674.7291870117188000,4.1418480873107910,53.5362205505371100,52,99,86,79,81,15162,2147756918,2147425060,2148011456,2147873051,2147645001,2147058441,2148259766,2147195693,670,4,13,39121
1356071887,5809,979.6900024414062000,53.7067489624023440,677.2395019531250000,4.0587520599365230,53.2629508972168000,53,97,87,80,81,15165,2147756708,2147424356,2148010221,2147875648,2147644809,2147055268,2148263734,2147195291,3428,4,13,10178
1356075487,5808,990.3200073242188000,55.1683616638183600,677.4003906250000000,4.0534229278564450,53.0694999694824200,52,97,86,79,80,15165,2147757750,2147424841,2148009243,2147874395,2147639232,2147058176,2148260297,2147197458,143,4,13,24279
1356079087,5807,1002.6799926757812000,52.5795516967773440,676.8692016601562000,4.0710139274597170,53.4091682434082000,53,97,83,79,81,15163,2147756763,2147423634,2148008155,2147872448,2147643181,2147056155,2148257188,2147196690,111,4,13,43056
1356082687,5808,996.9400024414062000,52.9351692199707000,677.2915039062500000,4.0570302009582520,53.3643989562988300,52,97,86,78,80,15164,2147758573,2147423204,2148011986,2147874230,2147643885,2147056384,2148261613,2147196041,46,4,13,10190
1356086287,5809,990.7800292968750000,54.5882606506347660,677.7122802734375000,4.0430908203125000,53.1470909118652340,52,98,89,78,80,15166,2147755730,2147420818,2148010971,2147877202,2147641252,2147061558,2148259172,2147199122,296,4,13,5639
1356089887,5807,999.0200195312500000,55.0248413085937500,677.3093261718750000,4.0564379692077640,53.0876808166503900,52,97,88,79,81,15168,2147756160,2147420827,2148011136,2147873810,2147647387,2147057609,2148264018,2147196525,3385,4,13,39330
1356093487,5812,998.8200073242188000,54.4310188293457000,677.2708129882812000,4.0577158927917480,53.1612205505371100,53,97,88,78,80,15155,2147759387,2147419830,2148009746,2147872868,2147644534,2147059876,2148262281,2147195364,148,4,13,57875
1356097087,5808,1000.8800048828125000,54.1082801818847660,677.2926025390625000,4.0569920539855960,53.2049407958984400,53,97,84,77,81,15163,2147758253,2147423890,2148010560,2147874587,2147644013,2147060324,2148257133,2147196617,3489,4,13,43169
1356100687,5807,996.4899902343750000,54.7671890258789060,677.8933105468750000,4.0370960235595700,53.1278190612793000,52,101,85,79,81,15165,2147754870,2147423241,2148009170,2147874029,2147646043,2147058898,2148259693,2147195995,3192,4,13,52066
1356104287,5811,1004.3699951171875000,54.7188301086425800,677.7379150390625000,4.0422439575195310,53.1298484802246100,52,97,90,79,81,15166,2147757156,2147424064,2148012187,2147871597,2147644297,2147057645,2148256091,2147198747,132,4,13,37323
1356107887,5809,1004.0999755859375000,54.6411895751953100,678.1796264648438000,4.0276131629943850,53.1499900817871100,51,97,90,79,81,15142,2147756443,2147425801,2148008429,2147872612,2147644525,2147059017,2148259245,2147196397,31,4,13,40627
1356111487,5808,1001.0000000000000000,53.5388412475585940,677.5440063476562000,4.0486660003662110,53.2859191894531250,52,98,89,79,81,15163,2147758208,2147427794,2148009590,2147877092,2147645494,2147059273,2148264896,2147194953,390,4,13,20334
1356115087,5809,1004.6099853515625000,54.9344596862793000,677.6668701171875000,4.0445961952209470,53.1015586853027340,52,97,87,79,81,15167,2147757549,2147425124,2148007634,2147875428,2147645092,2147060736,2148257865,2147198546,3563,4,13,19173
1356118687,5808,1000.2999877929688000,54.2718887329101560,677.6961059570312000,4.0436291694641110,53.1935806274414060,53,97,85,79,80,15156,2147756443,2147422345,2148010322,2147873545,2147642861,2147060617,2148262034,2147194916,159,4,13,2026
1356122287,5808,1003.1500244140625000,54.3077316284179700,677.7326049804688000,4.0424189567565920,53.1861610412597660,52,98,81,80,81,15151,2147759661,2147425014,2148009645,2147874176,2147644132,2147060635,2148258578,2147196580,3498,4,13,14204
1356125887,5807,1012.3800048828125000,54.8513107299804700,678.5330810546875000,4.0159001350402830,53.1240692138671900,53,97,87,79,80,15154,2147757769,2147422793,2148011291,2147874093,2147645458,2147062345,2148264521,2147197065,3495,4,13,24313
1356129487,5810,1007.9199829101562000,54.2875709533691400,677.8220825195312000,4.0394549369812010,53.1934814453125000,51,99,88,78,80,15155,2147758226,2147423177,2148009929,2147876653,2147644068,2147055762,2148263305,2147197302,291,4,13,49212
1356133087,5811,1010.8300170898438000,54.3869705200195300,677.3637084960938000,4.0546379089355470,53.1694297790527340,52,98,87,78,81,15148,2147755328,2147423268,2148007963,2147875940,2147644534,2147054528,2148259593,2147197604,317,4,13,63879
1356136687,5809,1009.1400146484375000,54.8303718566894500,677.6821899414062000,4.0440878868103030,53.1175193786621100,52,97,86,80,80,15134,2147760466,2147424356,2148008978,2147874084,2147643483,2147056804,2148261851,2147196845,3440,4,13,25626
1356140287,5806,1009.5599975585938000,53.6687812805175800,677.3717041015625000,4.0543727874755860,53.2684593200683600,53,98,87,78,81,15130,2147758454,2147423268,2148010560,2147875428,2147644434,2147055396,2148263570,2147196809,9,4,13,39394
1356143887,5811,1005.4299926757812000,54.0145912170410160,677.3154296875000000,4.0562357902526855,53.2195205688476560,52,97,88,78,80,15132,2147756644,2147424740,2148007296,2147875547,2147642349,2147052489,2148254756,2147195638,3186,4,13,23577
1356147487,5811,997.3699951171875000,54.3200988769531250,678.8873901367188000,4.0041642189025880,53.2001304626464840,53,98,86,78,81,15131,2147760448,2147424365,2148011629,2147875940,2147643849,2147060050,2148261558,2147196818,3,4,13,17053
1356151087,5806,1009.4400024414062000,54.6518287658691400,678.9619750976562000,4.0016899108886720,53.1570396423339840,53,98,87,79,81,15126,2147756114,2147422948,2148008804,2147876690,2147643785,2147057325,2148259968,2147198491,284,4,13,47975
1356154687,5808,1003.8900146484375000,54.0894813537597660,678.8159179687500000,4.0065307617187500,53.2285804748535160,52,98,88,79,81,15128,2147757842,2147422016,2148011757,2147872731,2147643126,2147054418,2148262710,2147194852,66,4,13,4610
1356158287,5809,999.2399902343750000,55.0503387451171900,680.3917236328125000,3.9543058872222900,53.1247596740722660,53,98,84,80,82,15130,2147757577,2147424960,2148011456,2147872054,2147641654,2147059053,2148264585,2147193014,3556,4,13,32781
1356161887,5810,1004.9600219726562000,55.1888313293457000,680.1646728515625000,3.9618279933929443,53.1002693176269500,52,99,88,79,80,15130,2147756224,2147421778,2148009536,2147873069,2147647972,2147051803,2148261961,2147194614,3482,4,13,52257
1356165487,5811,1011.6799926757812000,55.1738891601562500,679.4288940429688000,3.9862170219421387,53.0927200317382800,52,97,83,78,82,15130,2147755081,2147424128,2148010834,2147874084,2147642761,2147054710,2148258304,2147196617,494,4,13,16181
1356169087,5807,1011.2299804687500000,55.4286308288574200,679.3560791015625000,3.9886279106140137,53.0587882995605500,52,97,90,79,81,15131,2147757723,2147422390,2148010733,2147870683,2147643126,2147055286,2148262976,2147198180,5,4,13,2228
1356172687,5808,1008.6900024414062000,55.3390197753906250,679.9517822265625000,3.9688849449157715,53.0801086425781250,53,97,86,79,81,15126,2147759424,2147424932,2148011126,2147871634,2147640795,2147056512,2148256475,2147197412,428,4,13,43704
1356176287,5806,1009.1599731445312000,54.1389617919921900,677.9887084960938000,4.0339369773864750,53.2136611938476560,51,98,88,78,81,15123,2147758089,2147423716,2148009819,2147874038,2147643181,2147058953,2148262994,2147194240,627,4,13,34290
1356179887,5808,1012.9699707031250000,53.7430000305175800,677.3386840820312000,4.0554637908935550,53.2540702819824200,52,96,86,78,81,15118,2147755200,2147422948,2148009243,2147876992,2147642386,2147052909,2148260425,2147194404,121,4,13,49620
1356183487,5809,1014.3499755859375000,53.1187705993652340,677.3519287109375000,4.0550270080566410,53.3401184082031250,52,98,83,81,81,15121,2147756973,2147424804,2148010934,2147874130,2147645824,2147059410,2148265545,2147196141,51,4,13,4999
1356187087,5811,1013.4000244140625000,54.5605392456054700,677.8076782226562000,4.0399341583251950,53.1547203063964840,52,97,86,78,80,15123,2147756297,2147420818,2148007661,2147870848,2147643821,2147057691,2148261129,2147195693,394,4,13,56606
1356190687,5811,1014.9000244140625000,53.7383499145507800,677.9083251953125000,4.0366020202636720,53.2620887756347660,52,97,88,79,81,15121,2147755574,2147422308,2148010496,2147874121,2147645421,2147051474,2148260800,2147196242,99,5,13,46887
1356194287,5805,1020.1900024414062000,54.7430496215820300,677.7822875976562000,4.0407748222351070,53.1324310302734400,52,99,87,78,80,15125,2147761179,2147421366,2148011465,2147872822,2147645586,2147054765,2148257252,2147193142,112,4,13,32233
1356197887,5808,1012.4799804687500000,54.0494804382324200,677.8267822265625000,4.0392971038818360,53.2241287231445300,52,99,86,77,81,15125,2147759990,2147425408,2148013092,2147874422,2147643702,2147061449,2148262683,2147197019,259,4,13,39568
1356201487,5809,1006.5900268554688000,54.0615692138671900,677.9180908203125000,4.0362758636474610,53.2249794006347660,51,100,87,80,82,15122,2147757366,2147420224,2148011318,2147877046,2147641764,2147065005,2148261513,2147195721,3388,4,13,60514
1356205087,5806,1010.9299926757812000,55.2833099365234400,679.3123779296875000,3.9900801181793213,53.0812492370605500,52,97,89,79,82,15125,2147754861,2147418313,2148011346,2147872905,2147645376,2147059136,2148262546,2147195136,17,4,13,64383
1356205555,5810,1008.9500122070312000,55.1600608825683600,679.1962280273438000,3.9939289093017580,53.0937614440918000,52,97,89,79,82,15156,2147755556,2147423341,2148011986,2147873627,2147645741,2147059355,2148258660,2147194322,3416,4,13,1976
